Hourly Weather Rudka

Today, 15 April, Thursday

Time Temperature Precipitation Wind Pressure Humidity
00:00 +5°C° 0 mm 2 mps 745 mmHg 94%
01:00 +4°C° 0 mm 2 mps 745 mmHg 94%
02:00 +4°C° 0 mm 2 mps 745 mmHg 94%
03:00 +4°C° 0.1 mm 2 mps 745 mmHg 94%
04:00 +4°C° 0.1 mm 2 mps 745 mmHg 94%
05:00 +4°C° 0.1 mm 2 mps 745 mmHg 94%
06:00 +4°C° 0 mm 2 mps 745 mmHg 94%
07:00 +4°C° 0 mm 2 mps 746 mmHg 93%
08:00 +4°C° 0 mm 2 mps 746 mmHg 92%
09:00 +4°C° 0 mm 2 mps 746 mmHg 92%
10:00 +4°C° 0 mm 2 mps 746 mmHg 91%
11:00 +5°C° 0 mm 2 mps 746 mmHg 90%
12:00 +4°C° 0 mm 3 mps 746 mmHg 89%
13:00 +4°C° 0 mm 3 mps 746 mmHg 87%
14:00 +5°C° 0 mm 3 mps 746 mmHg 86%
15:00 +5°C° 0 mm 4 mps 746 mmHg 86%
16:00 +5°C° 0 mm 4 mps 746 mmHg 86%
17:00 +5°C° 0 mm 4 mps 745 mmHg 85%
18:00 +4°C° 0 mm 4 mps 745 mmHg 88%
19:00 +4°C° 0 mm 4 mps 745 mmHg 91%
20:00 +2°C° 0 mm 5 mps 745 mmHg 94%
21:00 +2°C° 0 mm 5 mps 745 mmHg 94%
22:00 +1°C° 0 mm 5 mps 745 mmHg 95%
23:00 +1°C° 0 mm 5 mps 745 mmHg 96%

Tomorrow, 16 April, Friday

Time Temperature Precipitation Wind Pressure Humidity
00:00 +1°C° 0.1 mm 5 mps 744 mmHg 96%
01:00 +1°C° 0.1 mm 5 mps 744 mmHg 96%
02:00 +1°C° 0.1 mm 5 mps 744 mmHg 96%
03:00 +1°C° 0.2 mm 4 mps 744 mmHg 96%
04:00 +1°C° 0.2 mm 4 mps 744 mmHg 96%
05:00 +1°C° 0.2 mm 4 mps 744 mmHg 96%
06:00 +1°C° 0.7 mm 4 mps 744 mmHg 97%
07:00 +1°C° 0.7 mm 4 mps 744 mmHg 97%
08:00 0°C° 0.7 mm 4 mps 744 mmHg 97%
09:00 +1°C° 0.2 mm 3 mps 744 mmHg 97%
10:00 +2°C° 0.2 mm 3 mps 745 mmHg 98%
11:00 +2°C° 0.2 mm 3 mps 745 mmHg 98%
12:00 +2°C° 0 mm 3 mps 745 mmHg 98%
13:00 +2°C° 0 mm 3 mps 745 mmHg 97%
14:00 +2°C° 0 mm 3 mps 745 mmHg 97%
15:00 +2°C° 0 mm 3 mps 745 mmHg 97%
16:00 +2°C° 0 mm 3 mps 745 mmHg 97%
17:00 +2°C° 0 mm 3 mps 746 mmHg 97%
18:00 +2°C° 0 mm 3 mps 746 mmHg 97%
19:00 +2°C° 0 mm 3 mps 746 mmHg 97%
20:00 +2°C° 0 mm 3 mps 746 mmHg 97%
21:00 +2°C° 0.1 mm 3 mps 746 mmHg 97%
22:00 +1°C° 0.1 mm 3 mps 746 mmHg 97%
23:00 +2°C° 0.1 mm 2 mps 747 mmHg 97%

Day after tomorrow, 17 April, Saturday

Time Temperature Precipitation Wind Pressure Humidity
00:00 +2°C° 0.1 mm 2 mps 747 mmHg 97%
01:00 +2°C° 0.1 mm 2 mps 747 mmHg 97%
02:00 +2°C° 0.1 mm 2 mps 747 mmHg 97%
03:00 +2°C° 0 mm 2 mps 747 mmHg 98%
04:00 +2°C° 0 mm 2 mps 747 mmHg 98%
05:00 +2°C° 0 mm 2 mps 747 mmHg 98%
06:00 +2°C° 0 mm 2 mps 748 mmHg 98%
07:00 +2°C° 0 mm 2 mps 748 mmHg 98%
08:00 +2°C° 0 mm 2 mps 748 mmHg 98%
09:00 +3°C° 0 mm 2 mps 749 mmHg 98%
10:00 +3°C° 0 mm 2 mps 749 mmHg 97%
11:00 +4°C° 0 mm 1 mps 749 mmHg 97%
12:00 +4°C° 0 mm 1 mps 749 mmHg 96%
13:00 +4°C° 0 mm 1 mps 749 mmHg 96%
14:00 +5°C° 0 mm 1 mps 750 mmHg 95%
15:00 +5°C° 0 mm 1 mps 750 mmHg 95%
16:00 +5°C° 0 mm 1 mps 750 mmHg 95%
17:00 +5°C° 0 mm 1 mps 750 mmHg 96%
18:00 +5°C° 0 mm 1 mps 750 mmHg 96%
19:00 +5°C° 0 mm 1 mps 750 mmHg 97%
20:00 +5°C° 0 mm 1 mps 750 mmHg 97%
21:00 +5°C° 0 mm 1 mps 750 mmHg 97%
22:00 +5°C° 0 mm 1 mps 750 mmHg 97%
23:00 +5°C° 0 mm 1 mps 751 mmHg 97%

18 April, Sunday

Time Temperature Precipitation Wind Pressure Humidity
00:00 +4°C° 0 mm 1 mps 750 mmHg 96%
01:00 +4°C° 0 mm 1 mps 750 mmHg 96%
02:00 +4°C° 0 mm 1 mps 750 mmHg 95%
03:00 +2°C° 0 mm 2 mps 750 mmHg 95%
04:00 +2°C° 0 mm 2 mps 750 mmHg 94%
05:00 +2°C° 0 mm 2 mps 750 mmHg 94%
06:00 +3°C° 0 mm 2 mps 750 mmHg 89%
07:00 +4°C° 0 mm 3 mps 750 mmHg 83%
08:00 +7°C° 0 mm 3 mps 750 mmHg 78%
09:00 +8°C° 0 mm 3 mps 750 mmHg 71%
10:00 +10°C° 0 mm 3 mps 750 mmHg 65%
11:00 +12°C° 0 mm 4 mps 750 mmHg 58%
12:00 +12°C° 0 mm 4 mps 750 mmHg 54%
13:00 +13°C° 0 mm 4 mps 750 mmHg 50%
14:00 +13°C° 0 mm 4 mps 750 mmHg 46%
15:00 +13°C° 0 mm 4 mps 750 mmHg 47%
16:00 +13°C° 0 mm 3 mps 749 mmHg 48%
17:00 +13°C° 0 mm 3 mps 749 mmHg 49%
18:00 +12°C° 0 mm 3 mps 749 mmHg 55%
19:00 +11°C° 0 mm 3 mps 749 mmHg 61%
20:00 +9°C° 0 mm 3 mps 749 mmHg 67%
21:00 +9°C° 0 mm 3 mps 749 mmHg 68%
22:00 +9°C° 0 mm 2 mps 749 mmHg 69%
23:00 +9°C° 0 mm 2 mps 749 mmHg 70%

19 April, Monday

Time Temperature Precipitation Wind Pressure Humidity
00:00 +8°C° 0 mm 2 mps 749 mmHg 73%
01:00 +8°C° 0 mm 2 mps 749 mmHg 75%
02:00 +8°C° 0 mm 2 mps 748 mmHg 78%
03:00 +8°C° 0.1 mm 2 mps 748 mmHg 80%
04:00 +8°C° 0.1 mm 3 mps 748 mmHg 82%
05:00 +8°C° 0.1 mm 3 mps 748 mmHg 83%
06:00 +8°C° 0.3 mm 3 mps 747 mmHg 85%
07:00 +8°C° 0.3 mm 3 mps 747 mmHg 86%
08:00 +8°C° 0.3 mm 3 mps 747 mmHg 87%
09:00 +7°C° 0.3 mm 4 mps 747 mmHg 86%
10:00 +8°C° 0.3 mm 4 mps 746 mmHg 85%
11:00 +8°C° 0.3 mm 4 mps 746 mmHg 83%
12:00 +8°C° 0.6 mm 4 mps 746 mmHg 86%
13:00 +8°C° 0.6 mm 4 mps 745 mmHg 89%
14:00 +9°C° 0.6 mm 3 mps 745 mmHg 91%
15:00 +8°C° 1.2 mm 3 mps 744 mmHg 92%
16:00 +8°C° 1.2 mm 3 mps 744 mmHg 93%
17:00 +8°C° 1.2 mm 3 mps 743 mmHg 93%
18:00 +8°C° 0.9 mm 3 mps 743 mmHg 94%
19:00 +7°C° 0.9 mm 4 mps 742 mmHg 95%
20:00 +7°C° 0.9 mm 4 mps 742 mmHg 96%
21:00 +7°C° 0.3 mm 4 mps 741 mmHg 96%
22:00 +7°C° 0.3 mm 4 mps 741 mmHg 96%
23:00 +8°C° 0.3 mm 3 mps 740 mmHg 96%

20 April, Tuesday

Time Temperature Precipitation Wind Pressure Humidity
00:00 +8°C° 0.1 mm 3 mps 740 mmHg 97%
01:00 +8°C° 0.1 mm 3 mps 739 mmHg 97%
02:00 +8°C° 0.1 mm 3 mps 738 mmHg 97%
03:00 +7°C° 0.3 mm 4 mps 737 mmHg 97%
04:00 +7°C° 0.3 mm 4 mps 737 mmHg 97%
05:00 +7°C° 0.3 mm 4 mps 736 mmHg 97%
06:00 +7°C° 0.9 mm 5 mps 735 mmHg 96%
07:00 +7°C° 0.9 mm 5 mps 734 mmHg 95%
08:00 +7°C° 0.9 mm 6 mps 734 mmHg 95%
09:00 +7°C° 1.4 mm 5 mps 733 mmHg 94%
10:00 +7°C° 1.4 mm 5 mps 733 mmHg 94%
11:00 +6°C° 1.4 mm 5 mps 733 mmHg 93%
12:00 +6°C° 1.1 mm 5 mps 732 mmHg 94%
13:00 +6°C° 1.1 mm 5 mps 732 mmHg 94%
14:00 +6°C° 1.1 mm 5 mps 732 mmHg 94%
15:00 +5°C° 0.6 mm 4 mps 732 mmHg 94%
16:00 +5°C° 0.6 mm 4 mps 732 mmHg 94%
17:00 +5°C° 0.6 mm 4 mps 732 mmHg 95%
18:00 +5°C° 0.3 mm 4 mps 732 mmHg 95%
19:00 +4°C° 0.3 mm 4 mps 732 mmHg 95%
20:00 +4°C° 0.3 mm 4 mps 732 mmHg 95%
21:00 +4°C° 0.4 mm 4 mps 732 mmHg 95%
22:00 +3°C° 0.4 mm 4 mps 732 mmHg 96%
23:00 +3°C° 0.4 mm 4 mps 733 mmHg 96%
Show more